Weather History for KMDZ - January, 2015

Change the Weather History Date:

Tuesday, January 6, 2015

  Actual Average (WUND) Record (WUND)
Temperature  
Mean Temperature -4 °F -  
Max Temperature 3 °F - - (-1)
Min Temperature -10 °F - - (-1)
Degree Days  
Heating Degree Days 68    
Moisture  
Dew Point -10 °F    
Average Humidity 75    
Maximum Humidity 83    
Minimum Humidity 61    
Precipitation  
Precipitation 0.00 in - - ()
Sea Level Pressure  
Sea Level Pressure 30.17 in    
Wind  
Wind Speed 9 mph (West)    
Max Wind Speed 20 mph    
Max Gust Speed 28 mph    
Visibility 9 miles    
Events Snow    
Averages and records for this station are not official NWS values.
T = Trace of Precipitation, MM = Missing Value Source: NWS Daily Summary

Daily Weather History Graph

Daily Weather History Graph

Search for Another Location

Airport or City:

Trip Planner

Search our weather history database for the weather conditions in past years. The results will help you decide how hot, cold, wet, or windy it might be!

Date:

Astronomy

Jan. 06, 2015 Rise Set
Actual Time 7:39 AM CST 4:34 PM CST
Civil Twilight 7:06 AM CST 5:08 PM CST
Nautical Twilight 6:29 AM CST 5:45 PM CST
Astronomical Twilight 5:53 AM CST 6:20 PM CST
Moon 6:30 PM CST (1/6) 8:11 AM CST (1/6)
Length of Visible Light 10h 02m
Length of Day
8h 55m
Full, 98% of the Moon is Illuminated
Jan 6
Full
Jan 13
Last Quarter
Jan 20
New
Jan 26
First Quarter
Feb 3
Full

Hourly Weather History & Observations

Time (CST) Temp. Windchill Dew Point Humidity Pressure Visibility Wind Dir Wind Speed Gust Speed Precip Events Conditions
12:15 AM -7.4 °F -18.6 °F -13.0 °F 77% 30.22 in 10.0 mi WSW 4.6 mph - N/A   Scattered Clouds
12:35 AM -8.1 °F -19.4 °F -13.0 °F 79% 30.23 in 10.0 mi WSW 4.6 mph - N/A   Scattered Clouds
12:55 AM -8.5 °F -19.8 °F -12.8 °F 81% 30.23 in 10.0 mi West 4.6 mph - N/A   Scattered Clouds
1:15 AM -8.5 °F -21.6 °F -12.6 °F 82% 30.23 in 10.0 mi West 5.8 mph - N/A   Scattered Clouds
1:35 AM -8.5 °F -17.6 °F -13.0 °F 81% 30.22 in 10.0 mi West 3.5 mph - N/A   Clear
1:55 AM -9.0 °F -20.4 °F -13.4 °F 81% 30.22 in 10.0 mi West 4.6 mph - N/A   Clear
2:15 AM -8.7 °F -25.9 °F -12.6 °F 83% 30.22 in 10.0 mi West 9.2 mph - N/A   Clear
2:35 AM -9.4 °F -24.3 °F -13.5 °F 82% 30.22 in 10.0 mi West 6.9 mph - N/A   Clear
2:55 AM -9.6 °F -25.8 °F -13.9 °F 81% 30.22 in 10.0 mi West 8.1 mph - N/A   Clear
3:15 AM -9.9 °F -23.4 °F -14.3 °F 81% 30.21 in 10.0 mi West 5.8 mph - N/A   Clear
3:35 AM -10.3 °F -23.8 °F -14.8 °F 81% 30.21 in 10.0 mi West 5.8 mph - N/A   Clear
3:55 AM -10.5 °F -25.6 °F -14.8 °F 81% 30.20 in 10.0 mi West 6.9 mph - N/A   Clear
4:15 AM -10.3 °F -26.7 °F -14.8 °F 81% 30.20 in 10.0 mi West 8.1 mph - N/A   Clear
4:35 AM -9.8 °F -26.1 °F -14.1 °F 81% 30.20 in 10.0 mi West 8.1 mph - N/A   Clear
4:55 AM -9.4 °F -25.6 °F -13.9 °F 81% 30.20 in 10.0 mi West 8.1 mph - N/A   Clear
5:15 AM -9.4 °F -25.6 °F -13.9 °F 81% 30.19 in 10.0 mi West 8.1 mph - N/A   Clear
5:55 AM -9.0 °F -26.4 °F -13.5 °F 81% 30.18 in 10.0 mi West 9.2 mph - N/A   Clear
6:15 AM -9.2 °F -24.0 °F -13.7 °F 81% 30.19 in 10.0 mi West 6.9 mph - N/A   Clear
6:35 AM -9.4 °F -24.3 °F -13.9 °F 81% 30.19 in 10.0 mi West 6.9 mph - N/A   Clear
6:55 AM -9.4 °F -22.7 °F -13.9 °F 81% 30.18 in 10.0 mi WSW 5.8 mph - N/A   Clear
7:15 AM -9.6 °F -27.0 °F -14.1 °F 81% 30.18 in 10.0 mi West 9.2 mph - N/A   Clear
7:35 AM -10.1 °F -26.5 °F -14.8 °F 80% 30.18 in 10.0 mi West 8.1 mph - N/A   Clear
7:55 AM -10.3 °F -26.7 °F -14.8 °F 81% 30.18 in 10.0 mi West 8.1 mph - N/A   Clear
8:15 AM -10.1 °F -26.5 °F -14.8 °F 80% 30.18 in 10.0 mi WSW 8.1 mph - N/A   Clear
8:35 AM -9.8 °F -24.7 °F -14.3 °F 81% 30.17 in 10.0 mi WSW 6.9 mph - N/A   Clear
8:55 AM -8.9 °F -26.2 °F -13.5 °F 80% 30.17 in 10.0 mi West 9.2 mph - N/A   Clear
9:15 AM -8.3 °F -25.5 °F -12.8 °F 81% 30.16 in 10.0 mi West 9.2 mph - N/A   Clear
9:35 AM -7.2 °F -23.0 °F -11.9 °F 80% 30.15 in 10.0 mi WSW 8.1 mph - N/A   Clear
9:55 AM -6.2 °F -23.9 °F -10.5 °F 82% 30.15 in 10.0 mi WSW 10.4 mph - N/A   Clear
10:15 AM -4.9 °F -18.8 °F -9.4 °F 81% 30.15 in 10.0 mi WSW 6.9 mph - N/A   Clear
10:35 AM -4.0 °F -20.2 °F -8.5 °F 81% 30.15 in 10.0 mi WSW 9.2 mph - N/A   Clear
10:55 AM -4.5 °F -19.7 °F -8.9 °F 82% 30.14 in 10.0 mi WSW 8.1 mph - N/A   Clear
11:15 AM -2.4 °F -19.2 °F -6.7 °F 82% 30.13 in 10.0 mi West 10.4 mph - N/A   Clear
11:35 AM -0.4 °F -21.2 °F -5.1 °F 81% 30.12 in 10.0 mi West 17.3 mph 20.7 mph N/A   Clear
11:55 AM -0.4 °F -19.2 °F -5.8 °F 78% 30.12 in 10.0 mi West 13.8 mph 20.7 mph N/A   Clear
12:15 PM 0.3 °F -17.5 °F -7.6 °F 69% 30.12 in 10.0 mi West 12.7 mph 23.0 mph N/A   Clear
12:35 PM 0.9 °F -18.3 °F -7.6 °F 68% 30.10 in 10.0 mi West 15.0 mph 19.6 mph N/A   Clear
12:55 PM 1.8 °F -14.9 °F -6.9 °F 67% 30.10 in 10.0 mi WNW 11.5 mph 19.6 mph N/A   Scattered Clouds
1:15 PM 1.9 °F -14.7 °F -6.7 °F 67% 30.09 in 10.0 mi West 11.5 mph - N/A   Mostly Cloudy
1:35 PM 2.1 °F -16.0 °F -6.5 °F 67% 30.09 in 10.0 mi West 13.8 mph 19.6 mph N/A   Mostly Cloudy
1:55 PM 2.3 °F -15.7 °F -6.3 °F 67% 30.08 in 10.0 mi West 13.8 mph 18.4 mph N/A   Mostly Cloudy
2:15 PM 3.0 °F -14.1 °F -6.0 °F 66% 30.08 in 10.0 mi West 12.7 mph - N/A   Scattered Clouds
2:35 PM 3.9 °F -13.0 °F -5.8 °F 64% 30.10 in 10.0 mi West 12.7 mph 21.9 mph N/A   Scattered Clouds
2:55 PM 3.7 °F -13.2 °F -5.8 °F 65% 30.10 in 10.0 mi West 12.7 mph 19.6 mph N/A   Clear
3:15 PM 3.7 °F -11.6 °F -5.3 °F 66% 30.10 in 10.0 mi West 10.4 mph 17.3 mph N/A   Mostly Cloudy
3:35 PM 3.6 °F -12.6 °F -5.1 °F 67% 30.10 in 10.0 mi WNW 11.5 mph 17.3 mph N/A   Overcast
3:55 PM 3.6 °F -14.1 °F -4.9 °F 68% 30.10 in 10.0 mi West 13.8 mph 20.7 mph N/A   Overcast
4:15 PM 3.2 °F -14.6 °F -4.9 °F 69% 30.10 in 10.0 mi West 13.8 mph 19.6 mph N/A   Overcast
4:35 PM 3.0 °F -11.5 °F -4.0 °F 73% 30.10 in 4.0 mi West 9.2 mph 19.6 mph N/A   Haze
4:55 PM 2.7 °F -12.9 °F -3.5 °F 76% 30.10 in 4.0 mi West 10.4 mph - N/A Snow Light Snow
5:15 PM 2.3 °F -13.4 °F -3.5 °F 77% 30.10 in 10.0 mi West 10.4 mph - N/A   Overcast
5:35 PM 2.3 °F -15.0 °F -3.6 °F 76% 30.11 in 10.0 mi WNW 12.7 mph 18.4 mph N/A   Overcast
5:55 PM 2.1 °F -16.0 °F -3.8 °F 76% 30.11 in 5.0 mi WNW 13.8 mph 17.3 mph N/A   Haze
6:15 PM 1.9 °F -13.8 °F -3.1 °F 79% 30.12 in 3.0 mi WNW 10.4 mph 16.1 mph N/A Snow Light Snow
6:35 PM 1.9 °F -16.2 °F -4.2 °F 76% 30.13 in 7.0 mi WNW 13.8 mph 20.7 mph N/A   Overcast
6:55 PM 1.9 °F -16.9 °F -4.9 °F 73% 30.13 in 3.0 mi NW 15.0 mph 24.2 mph N/A   Haze
7:15 PM 1.4 °F -16.1 °F -5.3 °F 74% 30.14 in 4.0 mi WNW 12.7 mph 20.7 mph N/A   Haze
7:35 PM 0.5 °F -18.0 °F -5.4 °F 76% 30.14 in 5.0 mi NW 13.8 mph 20.7 mph N/A   Haze
7:55 PM 0.1 °F -19.8 °F -6.7 °F 73% 30.15 in 4.0 mi NW 16.1 mph 23.0 mph N/A   Haze
8:15 PM -0.4 °F -19.2 °F -6.9 °F 74% 30.17 in 7.0 mi NW 13.8 mph 21.9 mph N/A   Scattered Clouds
8:35 PM -0.6 °F -21.4 °F -8.7 °F 69% 30.18 in 4.0 mi NW 17.3 mph 23.0 mph N/A   Haze
8:55 PM -1.5 °F -21.3 °F -10.3 °F 66% 30.19 in 4.0 mi NW 15.0 mph 27.6 mph N/A   Haze
9:15 PM -1.7 °F -24.0 °F -10.5 °F 66% 30.20 in 5.0 mi NW 19.6 mph 26.5 mph N/A   Haze
9:35 PM -2.2 °F -24.7 °F -11.2 °F 66% 30.21 in 10.0 mi NW 19.6 mph 26.5 mph N/A   Clear
9:55 PM -2.4 °F -21.7 °F -11.2 °F 66% 30.22 in 10.0 mi WNW 13.8 mph 20.7 mph N/A   Clear
10:15 PM -2.9 °F -22.4 °F -11.2 °F 68% 30.23 in 10.0 mi WNW 13.8 mph 20.7 mph N/A   Clear
10:35 PM -3.1 °F -23.3 °F -10.3 °F 71% 30.24 in 10.0 mi WNW 15.0 mph 18.4 mph N/A   Clear
10:55 PM -3.5 °F -21.4 °F -10.3 °F 73% 30.25 in 10.0 mi NW 11.5 mph 19.6 mph N/A   Clear
11:15 PM -3.5 °F -23.8 °F -11.4 °F 69% 30.26 in 7.0 mi NW 15.0 mph 24.2 mph N/A   Clear
11:35 PM -3.8 °F -25.6 °F -13.7 °F 63% 30.27 in 5.0 mi NW 17.3 mph 23.0 mph N/A   Haze
11:55 PM -4.2 °F -26.7 °F -14.6 °F 61% 30.29 in 4.0 mi NW 18.4 mph 26.5 mph N/A   Haze